This is the latest recevied weather packets stored in our database for station/object N7NIP. If no packets are shown the sender has not sent any weather packets the latest 10 day(s).
| Time | Temp. | Humidity | Pressure | Rain* | Wind** | Luminosity | Snow |
|---|---|---|---|---|---|---|---|
| 1777917512 | 21.67° C | 46% | 1025.2 hPa | 0 mm | - | 774 W/m² | - |
| 1777917208 | 21.67° C | 45% | 1025.1 hPa | 0 mm | - | 747 W/m² | - |
| 1777916907 | 21.67° C | 50% | 1025.1 hPa | 0 mm | - | 756 W/m² | - |
| 1777916604 | 21.67° C | 52% | 1025.3 hPa | 0 mm | - | 697 W/m² | - |
| 1777916300 | 21.67° C | 48% | 1025.1 hPa | 0 mm | - | 685 W/m² | - |
| 1777915997 | 21.67° C | 47% | 1025.1 hPa | 0 mm | - | 734 W/m² | - |
| 1777915694 | 21.67° C | 49% | 1025.1 hPa | 0 mm | - | 734 W/m² | - |
| 1777915391 | 21.67° C | 49% | 1025.1 hPa | 0 mm | - | 654 W/m² | - |
| 1777915086 | 21.67° C | 49% | 1025.2 hPa | 0 mm | - | 699 W/m² | - |
| 1777914784 | 21.67° C | 49% | 1025.1 hPa | 0 mm | - | 684 W/m² | - |
| 1777914481 | 21.67° C | 48% | 1025 hPa | 0 mm | - | 664 W/m² | - |
| 1777914178 | 21.11° C | 50% | 1024.9 hPa | 0 mm | - | 643 W/m² | - |
| 1777913874 | 21.67° C | 48% | 1025 hPa | 0 mm | - | 629 W/m² | - |
| 1777913571 | 20.56° C | 49% | 1025 hPa | 0 mm | - | 615 W/m² | - |
| 1777913267 | 20.56° C | 48% | 1025.1 hPa | 0 mm | - | 600 W/m² | - |
| 1777912964 | 21.11° C | 50% | 1025.2 hPa | 0 mm | - | 587 W/m² | - |
| 1777912660 | 21.67° C | 48% | 1024.9 hPa | 0 mm | - | 566 W/m² | - |
| 1777912356 | 21.67° C | 49% | 1024.9 hPa | 0 mm | - | 560 W/m² | - |
| 1777912052 | 21.67° C | 49% | 1025 hPa | 0 mm | - | 539 W/m² | - |
| 1777911748 | 21.11° C | 50% | 1025.1 hPa | 0 mm | - | 517 W/m² | - |
| 1777911445 | 21.67° C | 50% | 1024.9 hPa | 0 mm | - | 515 W/m² | - |
| 1777911142 | 21.67° C | 53% | 1025 hPa | 0 mm | - | 493 W/m² | - |
| 1777910840 | 21.67° C | 59% | 1025.1 hPa | 0 mm | - | 470 W/m² | - |
| 1777910536 | 21.11° C | 52% | 1025.1 hPa | 0 mm | - | 452 W/m² | - |
| 1777910233 | 20.56° C | 51% | 1025 hPa | 0 mm | - | 436 W/m² | - |
* Rain latest hour (hover to see other rain measurements)
** Current wind speed in m/s (hover to see current wind gust speed)